GW1699 Weather Reports


time (UTC)temp
C
wind
direction
speed
KPH
gust
KPH
rain 1hr
cm
rain 24hr
cm
rain mn
cm
humidity
%
barometer
mb
20260510103935 8 192 0.0 0.0 0.00 0.00 0.00 99 1011.8
20260510103324 8 191 0.0 0.0 0.00 0.00 0.00 99 1011.8
20260510102717 9 191 0.0 0.0 0.00 0.00 0.00 99 1011.5
20260510102142 8 191 0.0 0.0 0.00 0.00 0.00 99 1011.5
20260510101510 8 193 0.0 0.0 0.00 0.00 0.00 99 1011.1
20260510100351 8 190 0.0 0.0 0.00 0.00 0.00 99 1011.1
20260510095710 8 189 0.0 0.0 0.00 0.00 0.00 99 1011.1
20260510095139 8 190 0.0 0.0 0.00 0.00 0.00 99 1011.1
20260510094539 8 191 0.0 0.0 0.00 0.00 0.00 99 1011.1
20260510093908 9 178 0.0 0.0 0.00 0.00 0.00 99 1011.1
20260510093327 9 191 0.0 0.0 0.00 0.00 0.00 99 1011.1
20260510092725 9 193 0.0 0.0 0.00 0.00 0.00 99 1010.8
20260510092129 8 191 0.0 0.0 0.00 0.00 0.00 99 1010.8
20260510091537 8 190 0.0 0.0 0.00 0.00 0.00 99 1010.8
20260510090909 9 190 0.0 0.0 0.00 0.00 0.00 99 1010.8
20260510090341 9 191 0.0 0.0 0.00 0.00 0.00 99 1010.8
20260510085716 9 191 0.0 0.0 0.00 0.00 0.00 99 1010.8
20260510083948 9 191 0.0 0.0 0.00 0.00 0.00 99 1010.8
20260510083352 9 186 0.0 0.0 0.00 0.00 0.00 99 1010.4
20260510082744 9 191 0.0 0.0 0.00 0.00 0.00 99 1010.4
20260510082119 9 193 0.0 0.0 0.00 0.00 0.00 99 1010.4
20260510081549 9 193 0.0 0.0 0.00 0.00 0.00 99 1010.4
20260510080918 9 191 0.0 0.0 0.00 0.00 0.00 99 1010.4
20260510080327 9 191 0.0 0.0 0.00 0.00 0.00 99 1010.4
20260510075750 9 190 0.0 0.0 0.00 0.00 0.00 99 1010.4
20260510074542 9 191 0.0 0.0 0.00 0.00 0.00 99 1010.4
20260510073942 9 191 0.0 0.0 0.00 0.00 0.00 99 1010.1
20260510073347 9 189 0.0 0.0 0.00 0.00 0.00 99 1010.4
20260510072734 9 193 0.0 0.0 0.00 0.00 0.00 99 1010.4
20260510072126 9 191 0.0 0.0 0.00 0.00 0.00 99 1010.4
20260510071546 9 201 0.0 0.0 0.00 0.00 0.00 99 1010.4
20260510070925 9 201 0.0 0.0 0.00 0.00 0.00 99 1010.4
20260510070312 9 194 0.0 0.0 0.00 0.00 0.00 99 1010.4
20260510065734 9 193 0.0 0.0 0.00 0.00 0.00 99 1010.4
20260510065141 10 191 0.0 0.0 0.00 0.00 0.00 99 1010.4
20260510063923 10 191 0.0 0.0 0.00 0.00 0.00 99 1010.1
20260510063330 10 193 0.0 0.0 0.00 0.00 0.00 99 1010.4
20260510062709 10 194 0.0 0.0 0.00 0.00 0.00 99 1010.4
20260510062146 10 196 0.0 0.0 0.00 0.00 0.00 99 1010.4
20260510061534 10 199 0.0 0.0 0.00 0.00 0.00 99 1010.4
20260510060949 10 195 0.0 0.0 0.00 0.00 0.00 99 1010.4
20260510060341 10 207 0.0 0.0 0.00 0.00 0.00 99 1010.4
20260510055725 10 193 0.0 0.0 0.00 0.00 0.00 99 1010.4
20260510055118 10 193 0.0 0.0 0.00 0.00 0.00 99 1010.8
20260510054538 10 193 0.0 0.0 0.00 0.00 0.00 99 1010.4
20260510053314 10 195 0.0 0.0 0.00 0.00 0.00 99 1010.8
20260510052149 10 207 0.0 0.0 0.00 0.00 0.00 99 1010.8
20260510051548 10 207 0.0 0.0 0.00 0.00 0.00 99 1010.8
20260510050912 10 196 0.0 0.0 0.00 0.00 0.00 99 1010.8
20260510050332 10 197 0.0 0.0 0.00 0.00 0.00 99 1010.8
20260510045721 10 197 0.0 0.0 0.00 0.00 0.00 99 1010.8
20260510045110 10 197 0.0 0.0 0.00 0.00 0.00 99 1010.8
20260510043931 10 180 0.0 0.0 0.00 0.00 0.00 99 1010.8
20260510043338 10 195 0.0 0.0 0.00 0.00 0.00 99 1010.8
20260510042711 10 183 0.0 0.0 0.00 0.00 0.00 99 1010.8
20260510042145 10 199 0.0 0.0 0.00 0.00 0.00 99 1010.4
20260510041533 10 191 0.0 0.0 0.00 0.00 0.00 99 1010.8
20260510040924 10 197 0.0 0.0 0.00 0.00 0.00 99 1010.4
20260510040343 10 197 0.0 0.0 0.00 0.00 0.00 99 1010.4
20260510035747 10 197 0.0 0.0 0.00 0.00 0.00 99 1010.4
20260510035123 10 195 0.0 0.0 0.00 0.00 0.00 98 1010.4
20260510034541 10 197 0.0 0.0 0.00 0.00 0.00 98 1010.4
20260510033910 10 195 0.0 0.0 0.00 0.00 0.00 98 1010.4
20260510033316 10 198 0.0 0.0 0.00 0.00 0.00 98 1010.4
20260510032752 10 196 0.0 0.0 0.00 0.00 0.00 98 1010.1
20260510032147 10 198 0.0 0.0 0.00 0.00 0.00 98 1010.1
20260510031524 11 199 0.0 0.0 0.00 0.00 0.00 97 1010.1
20260510030919 11 195 0.0 0.0 0.00 0.00 0.00 97 1010.1
20260510030328 11 195 0.0 0.0 0.00 0.00 0.00 96 1010.1
20260510025732 11 190 0.0 0.0 0.00 0.00 0.00 96 1010.1
20260510025123 11 199 0.0 0.0 0.00 0.00 0.00 96 1010.1
20260510023940 11 199 0.0 0.0 0.00 0.00 0.00 95 1010.1
20260510022739 11 199 0.0 0.0 0.00 0.00 0.00 95 1009.8
20260510021510 11 199 0.0 0.0 0.00 0.00 0.00 94 1009.8
20260510020952 11 199 0.0 0.0 0.00 0.00 0.00 94 1009.8
20260510015740 12 199 0.0 0.0 0.00 0.00 0.00 93 1009.4
20260510015143 12 198 0.0 0.0 0.00 0.00 0.00 93 1009.4
20260510014511 12 190 0.0 0.0 0.00 0.00 0.00 92 1009.4
20260510013946 12 198 0.0 0.0 0.00 0.00 0.00 91 1009.4
20260510012725 12 196 0.0 0.0 0.00 0.00 0.00 90 1009.1
20260510012131 12 199 0.0 0.0 0.00 0.00 0.00 90 1009.1
20260510011556 12 196 0.0 0.0 0.00 0.00 0.00 89 1008.8
20260510010951 13 198 0.0 0.0 0.00 0.00 0.00 88 1008.8
20260510010348 13 199 0.0 0.0 0.00 0.00 0.00 88 1008.8
20260510005143 13 197 0.0 0.0 0.00 0.00 0.00 86 1008.8
20260510004550 13 197 0.0 0.0 0.00 0.00 0.00 85 1008.8
20260510003307 14 196 0.0 0.0 0.00 0.00 0.00 86 1008.4
20260510002716 15 208 0.0 0.0 0.00 0.00 0.00 85 1008.4
20260510001511 15 190 0.0 0.0 0.00 0.00 0.00 82 1008.1
20260510000943 15 191 0.0 0.0 0.00 0.00 0.00 82 1008.1
20260510000349 16 192 0.0 0.0 0.00 0.00 0.00 78 1007.7
20260509235710 16 196 0.0 0.0 0.00 0.00 0.00 78 1007.7
20260509235126 16 195 0.0 0.0 0.00 0.00 0.00 78 1008.1
20260509234543 16 188 1.6 1.6 0.00 0.00 0.00 78 1008.1
20260509233949 17 197 0.0 0.0 0.00 0.00 0.00 77 1008.1
20260509233339 17 191 1.6 1.6 0.00 0.00 0.00 75 1007.7
20260509232130 18 183 1.6 1.6 0.00 0.00 0.00 70 1007.7
20260509231509 20 182 1.6 1.6 0.00 0.00 0.00 68 1007.7
20260509230951 20 177 0.0 1.6 0.00 0.00 0.00 66 1007.7
20260509230332 20 202 0.0 0.0 0.00 0.00 0.00 66 1007.7
20260509225146 20 183 3.2 3.2 0.00 0.00 0.00 69 1007.7
20260509224535 19 217 0.0 1.6 0.00 0.00 0.00 71 1007.7
20260509223928 19 205 1.6 1.6 0.00 0.00 0.00 69 1007.7
20260509223343 19 197 1.6 1.6 0.00 0.00 0.00 68 1007.7
20260509222130 18 173 1.6 1.6 0.00 0.00 0.00 68 1008.1
20260509220918 19 197 1.6 1.6 0.00 0.00 0.00 70 1008.1
20260509220325 19 210 1.6 1.6 0.00 0.00 0.00 72 1008.1
20260509215723 20 139 3.2 3.2 0.00 0.00 0.00 63 1008.1
20260509215134 20 165 1.6 1.6 0.00 0.00 0.00 58 1008.1
20260509214520 20 63 1.6 1.6 0.00 0.00 0.00 60 1008.1
20260509213335 20 193 0.0 1.6 0.00 0.00 0.00 65 1008.1
20260509212739 20 197 0.0 0.0 0.00 0.00 0.00 69 1008.1
20260509212145 19 191 0.0 0.0 0.00 0.00 0.00 65 1008.1
20260509211542 19 151 1.6 1.6 0.00 0.00 0.00 66 1008.1
20260509210931 20 167 0.0 1.6 0.00 0.00 0.00 62 1008.1
20260509210318 20 191 0.0 0.0 0.00 0.00 0.00 61 1008.4
20260509205747 20 216 0.0 0.0 0.00 0.00 0.00 61 1008.1
20260509205134 20 9 8.0 9.7 0.00 0.00 0.00 58 1008.1
20260509204537 20 233 3.2 3.2 0.00 0.00 0.00 69 1008.1
20260509203950 19 203 0.0 1.6 0.00 0.00 0.00 63 1008.1
20260509203321 19 160 0.0 1.6 0.00 0.00 0.00 62 1008.1
20260509202753 20 313 3.2 3.2 0.00 0.00 0.00 61 1008.1
20260509202126 20 163 1.6 1.6 0.00 0.00 0.00 59 1008.1
20260509201532 19 201 0.0 0.0 0.00 0.00 0.00 61 1008.1
20260509200939 19 72 1.6 3.2 0.00 0.00 0.00 60 1007.7
20260509200309 19 220 0.0 1.6 0.00 0.00 0.00 60 1008.1
20260509195125 19 129 1.6 1.6 0.00 0.00 0.00 60 1008.1
20260509193915 19 200 0.0 0.0 0.00 0.00 0.00 62 1008.1
20260509193337 19 240 6.4 9.7 0.00 0.00 0.00 61 1008.1
20260509192748 19 237 3.2 4.8 0.00 0.00 0.00 60 1008.1
20260509191528 18 198 1.6 3.2 0.00 0.00 0.00 61 1008.4
20260509190313 19 198 3.2 6.4 0.00 0.00 0.00 62 1008.1
20260509185750 18 195 0.0 1.6 0.00 0.00 0.00 60 1008.1
20260509185114 19 190 0.0 1.6 0.00 0.00 0.00 60 1008.1
20260509184531 18 178 1.6 1.6 0.00 0.00 0.00 62 1008.1
20260509183936 18 24 1.6 3.2 0.00 0.00 0.00 60 1008.4
20260509183343 18 199 0.0 1.6 0.00 0.00 0.00 61 1008.1
20260509182727 18 164 0.0 1.6 0.00 0.00 0.00 64 1008.4
20260509182153 18 261 3.2 3.2 0.00 0.00 0.00 62 1008.4
20260509181515 18 275 3.2 3.2 0.00 0.00 0.00 61 1008.4
20260509180942 18 232 1.6 1.6 0.00 0.00 0.00 62 1008.4
20260509180315 18 188 1.6 1.6 0.00 0.00 0.00 61 1008.4
20260509175737 18 201 1.6 1.6 0.00 0.00 0.00 62 1008.4
20260509175152 18 228 3.2 3.2 0.00 0.00 0.00 61 1008.4
20260509174526 18 231 1.6 3.2 0.00 0.00 0.00 60 1008.4
20260509173310 18 326 1.6 3.2 0.00 0.00 0.00 61 1008.4
20260509172726 18 351 4.8 4.8 0.00 0.00 0.00 57 1008.4
20260509171510 18 175 0.0 0.0 0.00 0.00 0.00 59 1008.4
20260509170921 18 198 0.0 0.0 0.00 0.00 0.00 56 1008.8
20260509170323 18 173 1.6 1.6 0.00 0.00 0.00 60 1008.8
20260509165719 18 117 1.6 1.6 0.00 0.00 0.00 56 1008.8
20260509165132 18 104 4.8 6.4 0.00 0.00 0.00 57 1008.4
20260509164539 18 343 3.2 3.2 0.00 0.00 0.00 58 1008.8
20260509163934 18 83 3.2 6.4 0.00 0.00 0.00 58 1008.4
20260509162115 17 336 3.2 4.8 0.00 0.00 0.00 57 1008.8
20260509161540 17 134 1.6 1.6 0.00 0.00 0.00 58 1008.8
20260509160930 17 263 4.8 4.8 0.00 0.00 0.00 60 1008.8
20260509160345 17 204 1.6 3.2 0.00 0.00 0.00 60 1008.8
20260509155716 17 219 1.6 3.2 0.00 0.00 0.00 61 1008.8
20260509154540 16 209 1.6 1.6 0.00 0.00 0.00 65 1008.8
20260509153940 16 218 0.0 0.0 0.00 0.00 0.00 63 1008.8
20260509153324 16 199 0.0 0.0 0.00 0.00 0.00 67 1008.8
20260509152128 16 153 0.0 1.6 0.00 0.00 0.00 67 1008.8
20260509150915 16 167 0.0 1.6 0.00 0.00 0.00 70 1009.1
20260509150315 15 243 0.0 0.0 0.00 0.00 0.00 68 1009.1
20260509145740 15 98 1.6 1.6 0.00 0.00 0.00 69 1008.8
20260509145127 15 153 0.0 0.0 0.00 0.00 0.00 72 1009.1
20260509144508 15 213 1.6 1.6 0.00 0.00 0.00 70 1009.1
20260509143907 15 204 0.0 0.0 0.00 0.00 0.00 77 1009.4
20260509142747 15 182 0.0 1.6 0.00 0.00 0.00 70 1009.1
20260509141517 16 4 3.2 4.8 0.00 0.00 0.00 69 1008.8
20260509140924 16 190 0.0 0.0 0.00 0.00 0.00 68 1009.1
20260509140344 15 64 0.0 1.6 0.00 0.00 0.00 72 1008.8
20260509135710 15 314 1.6 3.2 0.00 0.00 0.00 71 1008.8
20260509135112 15 209 0.0 0.0 0.00 0.00 0.00 71 1008.8
20260509134545 15 124 3.2 3.2 0.00 0.00 0.00 73 1009.1
20260509133914 15 169 1.6 1.6 0.00 0.00 0.00 74 1008.8
20260509132743 14 185 0.0 0.0 0.00 0.00 0.00 79 1009.1
20260509132132 14 209 1.6 1.6 0.00 0.00 0.00 77 1009.1
20260509131511 13 199 0.0 0.0 0.00 0.00 0.00 80 1009.1
20260509130917 13 191 0.0 0.0 0.00 0.00 0.00 80 1009.4
20260509130311 13 198 0.0 0.0 0.00 0.00 0.00 85 1009.4
20260509125721 13 193 0.0 0.0 0.00 0.00 0.00 85 1009.4
20260509125123 12 195 0.0 0.0 0.00 0.00 0.00 88 1009.4
20260509123935 12 196 0.0 0.0 0.00 0.00 0.00 91 1009.4
20260509123351 12 200 0.0 0.0 0.00 0.00 0.00 91 1009.4
20260509122746 11 201 0.0 0.0 0.00 0.00 0.00 90 1009.4
20260509122142 11 198 0.0 0.0 0.00 0.00 0.00 91 1009.4
20260509121510 11 182 0.0 0.0 0.00 0.00 0.00 91 1009.4
20260509120914 11 193 0.0 0.0 0.00 0.00 0.00 91 1009.4
20260509120320 11 200 0.0 0.0 0.00 0.00 0.00 92 1009.4
20260509115739 10 197 0.0 0.0 0.00 0.00 0.00 93 1009.4
20260509115121 10 182 0.0 0.0 0.00 0.00 0.00 93 1009.1
20260509113926 10 195 0.0 0.0 0.00 0.00 0.00 93 1009.4
20260509113325 10 195 0.0 0.0 0.00 0.00 0.00 93 1009.1
20260509112131 10 180 0.0 0.0 0.00 0.00 0.00 94 1009.4
20260509110934 10 190 0.0 0.0 0.00 0.00 0.00 93 1009.1
20260509110313 10 190 0.0 0.0 0.00 0.00 0.00 93 1009.1
20260509104545 10 192 0.0 0.0 0.00 0.00 0.00 93 1008.8